Regional Weather Roundup
Issued by NWS Mt. Holly, NJ

Home | Current Version | Previous Version | Text Only | Print | Product List | Glossary On
Versions: 1 2 3 4 5 6 7 8 9 10 11 12 13 14 15 16 17 18 19 20 21 22 23 24 25 26 27 28 29 30 31 32 33 34 35 36 37 38 39 40 41 42 43 44 45 46 47 48 49 50
000
ASUS41 KPHI 240812
RWRPHI

REGIONAL WEATHER ROUNDUP
NATIONAL WEATHER SERVICE MOUNT HOLLY NJ
400 AM EDT TUE MAY 24 2016

NOTE:  "FAIR" INDICATES FEW OR NO CLOUDS BELOW 12,000 FEET WITH NO
SIGNIFICANT WEATHER AND/OR OBSTRUCTIONS TO VISIBILITY.

 * = STATION DOES NOT REPORT PRECIPITATION (E.G. RAIN, SNOW, ETC.)
        OR FOG.

NJZ015>026-240900-
SOUTHERN NEW JERSEY

CITY           SKY/WX    TMP DP  RH WIND       PRES   REMARKS
POMONA         LGT RAIN  57  55  93 SW5       29.88F
WILDWOOD*      MOCLDY   N/A N/A N/A CALM      29.90F
MILLVILLE      LGT RAIN  56  54  93 SW10      29.86F FOG
WRIGHTSTOWN    CLOUDY    56  54  91 W7        29.88R
MOUNT HOLLY    CLOUDY    55  54  96 E5        29.89R
TRENTON        CLOUDY    57  54  89 E3        29.89R

$$
NJZ001>014-240900-
NORTHERN NEW JERSEY

CITY           SKY/WX    TMP DP  RH WIND       PRES   REMARKS
SUSSEX         CLOUDY    59  54  83 CALM      29.90R
ANDOVER*         N/A     58  55  90 CALM      29.89S
MORRISTOWN     LGT RAIN  57  54  88 CALM      29.89S
NEWARK         LGT RAIN  59  55  87 W6        29.88S
TETERBORO      LGT RAIN  59  54  83 CALM      29.87F
CALDWELL       LGT RAIN  57  55  93 CALM      29.89S
SOMERVILLE     MOCLDY    56  54  93 NW5       29.87F FOG
ALLAIRE*       LGT RAIN  55  54  96 W5        29.89S
TOMS RIVER*    CLOUDY    55  52  88 W8        29.89S

$$
PAZ043-044-047-054-055-060>062-066>071-240900-
EASTERN PENNSYLVANIA

CITY           SKY/WX    TMP DP  RH WIND       PRES   REMARKS
PHILADELPHIA   CLOUDY    58  54  86 SW9       29.88F
NORTH PHILA    CLOUDY    57  55  93 NE6       29.90R
BLUE BELL*     CLOUDY    54  54 100 CALM      29.87S
DOYLESTOWN     CLOUDY    54  54 100 CALM      29.88R
QUAKERTOWN*    CLOUDY    57  55  94 CALM      29.89S
PERKASIE*      CLOUDY    55  55 100 CALM      29.89S
POTTSTOWN      CLOUDY    56  55  97 W3        29.89F
LANCASTER      MOCLDY    56  53  90 W8        29.89F
COATESVILLE      N/A    N/A N/A N/A MISG        N/A
READING        PTCLDY    56  53  90 CALM      29.88S
ALLENTOWN      CLOUDY    57  53  86 SW5       29.87F
MOUNT POCONO   MOCLDY    52  42  69 N9        29.90S
HAZLETON       MOCLDY    57  46  67 W5        29.94F
LEHIGHTON      FAIR      54  52  94 CALM      29.88S
WILKES BARRE   CLOUDY    57  46  66 CALM      29.91R

$$
DEZALL-MDZ008-012-015-019-020-240900-
DELAWARE AND EASTERN MARYLAND

CITY           SKY/WX    TMP DP  RH WIND       PRES   REMARKS
WILMINGTON     CLOUDY    57  55  93 SW5       29.90F FOG
DOVER          CLOUDY    57  57 100 S3        29.90S
GEORGETOWN     CLOUDY    57  56  96 SW6       29.91F
EASTON         LGT RAIN  59  59 100 SW6       29.95F
PATUXENT       CLOUDY    58  55  90 W10       29.94S
OCEAN CITY     CLOUDY    57  53  86 W3        29.91F
WALLOPS ISLAND CLOUDY    58  55  90 W6        29.93F
SALISBURY      CLOUDY    57  55  93 SW3       29.91F

$$
PAZ001-021-NYZ056-072-MDZ011-DCZ001-240900-
OTHER NEARBY LOCATIONS

CITY           SKY/WX    TMP DP  RH WIND       PRES   REMARKS
HARRISBURG     PTCLDY    57  52  83 NW10      29.90S
STATE COLLEGE  PTCLDY    53  49  89 CALM      29.97S
WILLIAMSPORT   MOCLDY    54  49  83 W9        29.93R
BINGHAMTON     PTCLDY    55  42  61 N7        29.94S
NEW YORK CITY  LGT RAIN  59  54  83 W7        29.90F
BALTIMORE      MOCLDY    59  55  87 W8        29.92S
WASHINGTON DC  CLOUDY    59  57  93 SW5       29.94S

$$



USA.gov is the U.S. government's official web portal to all federal, state and local government web resources and services.